sat.trackr.live / text

‹ back to catalog

YAMAL 601

NORAD 44307 · 2019-031A

PAYLOAD ACTIVE UNKNOWN

§ Identity

Operator
Country
CIS
Launch date
2019-05-30
Launch site
TYMSC
Launch vehicle
Mass (kg)
RCS (m²)

Purposes: comms

External: N2YO · Heavens-Above · Gunter

§ Orbital elements

Epoch: 2026-05-25T03:58:38.417952Z

Period
1,436.10 min
Inclination
0.0157°
Eccentricity
0.0002642
Mean motion
1.00271346 rev/d
Perigee alt
35,775.6 km
Apogee alt
35,797.9 km
Semi-major
42,164.9 km
B*
0.0000e+0
RAAN
34.5784°
Arg perigee
23.1023°
Mean anomaly
293.7364°
Rev number
2,569

§ Raw data

YAMAL 6011 44307U 19031A   26145.16572243  .00000118  00000+0  00000+0 0  99982 44307   0.0157  34.5784 0002642  23.1023 293.7364  1.00271346 25699

JSON: /api/v1/satellites/44307 · /tle

For live sub-satellite position, see the globe view (requires WebGL).

§ Visibility from observer

Set your observer location to see the next 7 days of passes ≥ 10°. The values pass through the URL so the page stays shareable.

No JS? Fill the form by hand. The geolocation button needs JavaScript.